| time (UTC) | temp F | wind direction | speed knots | gust knots | rain 1hr in | rain 24hr in | rain mn in | humidity % | barometer mb |
| 20260504202753 | 74 | 180 | 7.8 | 11.3 | 0.00 | 0.00 | 0.00 | 39 | 1009.6 |
| 20260504202250 | 74 | 159 | 4.3 | 18.2 | 0.00 | 0.00 | 0.00 | 40 | 1009.5 |
| 20260504201747 | 72 | 147 | 4.3 | 12.2 | 0.00 | 0.00 | 0.00 | 41 | 1009.6 |
| 20260504201244 | 73 | 149 | 5.2 | 12.2 | 0.00 | 0.00 | 0.00 | 40 | 1009.8 |
| 20260504200742 | 74 | 160 | 5.2 | 9.6 | 0.00 | 0.00 | 0.00 | 40 | 1009.8 |
| 20260504200238 | 74 | 211 | 2.6 | 10.4 | 0.00 | 0.00 | 0.00 | 39 | 1010.1 |
| 20260504195735 | 73 | 85 | 1.7 | 13.0 | 0.00 | 0.00 | 0.00 | 39 | 1009.9 |
| 20260504195230 | 75 | 79 | 5.2 | 7.8 | 0.00 | 0.00 | 0.00 | 40 | 1010.1 |
| 20260504194728 | 74 | 139 | 3.5 | 16.5 | 0.00 | 0.00 | 0.00 | 40 | 1010.1 |
| 20260504194224 | 74 | 225 | 3.5 | 9.6 | 0.00 | 0.00 | 0.00 | 40 | 1010.2 |
| 20260504193720 | 75 | 214 | 4.3 | 11.3 | 0.00 | 0.00 | 0.00 | 39 | 1010.4 |
| 20260504193218 | 74 | 152 | 4.3 | 11.3 | 0.00 | 0.00 | 0.00 | 40 | 1010.2 |
| 20260504192716 | 74 | 173 | 4.3 | 10.4 | 0.00 | 0.00 | 0.00 | 40 | 1010.5 |
| 20260504192214 | 74 | 319 | 2.6 | 10.4 | 0.00 | 0.00 | 0.00 | 40 | 1010.5 |
| 20260504191712 | 74 | 100 | 7.0 | 14.8 | 0.00 | 0.00 | 0.00 | 40 | 1010.6 |
| 20260504191209 | 74 | 212 | 11.3 | 23.5 | 0.00 | 0.00 | 0.00 | 38 | 1010.8 |
| 20260504190704 | 73 | 167 | 2.6 | 10.4 | 0.00 | 0.00 | 0.00 | 40 | 1010.6 |
| 20260504190201 | 73 | 139 | 5.2 | 27.8 | 0.00 | 0.00 | 0.00 | 41 | 1010.9 |
| 20260504185657 | 74 | 29 | 2.6 | 9.6 | 0.00 | 0.00 | 0.00 | 40 | 1010.8 |
| 20260504185153 | 72 | 185 | 3.5 | 18.2 | 0.00 | 0.00 | 0.00 | 40 | 1010.9 |
| 20260504184650 | 74 | 141 | 1.7 | 14.8 | 0.00 | 0.00 | 0.00 | 41 | 1010.9 |
| 20260504184145 | 72 | 169 | 7.8 | 12.2 | 0.00 | 0.00 | 0.00 | 40 | 1010.8 |
| 20260504183642 | 73 | 152 | 6.1 | 12.2 | 0.00 | 0.00 | 0.00 | 39 | 1010.8 |
| 20260504183139 | 73 | 200 | 4.3 | 10.4 | 0.00 | 0.00 | 0.00 | 41 | 1011.1 |
| 20260504182637 | 72 | 213 | 2.6 | 21.7 | 0.00 | 0.00 | 0.00 | 40 | 1010.9 |
| 20260504182134 | 72 | 187 | 9.6 | 18.2 | 0.00 | 0.00 | 0.00 | 40 | 1011.2 |
| 20260504181632 | 71 | 180 | 3.5 | 16.5 | 0.00 | 0.00 | 0.00 | 40 | 1011.2 |
| 20260504181129 | 72 | 1 | 6.1 | 16.5 | 0.00 | 0.00 | 0.00 | 41 | 1011.2 |
| 20260504180628 | 71 | 275 | 5.2 | 19.1 | 0.00 | 0.00 | 0.00 | 40 | 1011.2 |
| 20260504180126 | 71 | 61 | 4.3 | 14.8 | 0.00 | 0.00 | 0.00 | 43 | 1011.2 |
| 20260504175623 | 71 | 174 | 5.2 | 13.0 | 0.00 | 0.00 | 0.00 | 41 | 1011.2 |
| 20260504175120 | 71 | 200 | 15.6 | 15.6 | 0.00 | 0.00 | 0.00 | 41 | 1011.2 |
| 20260504174618 | 72 | 208 | 7.0 | 19.1 | 0.00 | 0.00 | 0.00 | 41 | 1011.5 |
| 20260504174114 | 71 | 210 | 13.0 | 14.8 | 0.00 | 0.00 | 0.00 | 42 | 1011.5 |
| 20260504173611 | 69 | 176 | 4.3 | 15.6 | 0.00 | 0.00 | 0.00 | 43 | 1011.5 |
| 20260504173109 | 71 | 167 | 4.3 | 22.6 | 0.00 | 0.00 | 0.00 | 42 | 1011.4 |
| 20260504172605 | 70 | 29 | 3.5 | 11.3 | 0.00 | 0.00 | 0.00 | 43 | 1011.7 |
| 20260504172102 | 70 | 203 | 12.2 | 14.8 | 0.00 | 0.00 | 0.00 | 42 | 1011.7 |
| 20260504171558 | 70 | 268 | 5.2 | 20.9 | 0.00 | 0.00 | 0.00 | 42 | 1011.8 |
| 20260504171056 | 69 | 258 | 5.2 | 16.5 | 0.00 | 0.00 | 0.00 | 42 | 1011.9 |
| 20260504170551 | 69 | 54 | 4.3 | 14.8 | 0.00 | 0.00 | 0.00 | 43 | 1012.0 |
| 20260504150935 | 64 | 32 | 2.6 | 13.0 | 0.00 | 0.00 | 0.00 | 42 | 1013.4 |
| 20260504150432 | 64 | 60 | 5.2 | 12.2 | 0.00 | 0.00 | 0.00 | 42 | 1013.3 |
| 20260504140858 | 61 | 106 | 4.3 | 13.0 | 0.00 | 0.00 | 0.00 | 46 | 1013.8 |
| 20260504140354 | 60 | 137 | 2.6 | 14.8 | 0.00 | 0.00 | 0.00 | 45 | 1014.1 |
| 20260504130319 | 53 | 214 | 1.7 | 7.0 | 0.00 | 0.00 | 0.00 | 58 | 1014.7 |
| 20260504120238 | 48 | 128 | 2.6 | 3.5 | 0.00 | 0.00 | 0.00 | 70 | 1014.8 |
| 20260504110705 | 41 | 128 | 0.9 | 1.7 | 0.00 | 0.00 | 0.00 | 84 | 1015.1 |
| 20260504110201 | 40 | 47 | 0.9 | 1.7 | 0.00 | 0.00 | 0.00 | 87 | 1014.8 |
| 20260504100125 | 35 | 75 | 0.0 | 2.6 | 0.00 | 0.00 | 0.00 | 94 | 1014.5 |
| 20260504081518 | 37 | 46 | 0.0 | 1.7 | 0.00 | 0.00 | 0.00 | 89 | 1014.8 |
| 20260504081013 | 37 | 23 | 0.0 | 2.6 | 0.00 | 0.00 | 0.00 | 89 | 1014.8 |
| 20260504080509 | 37 | 345 | 1.7 | 1.7 | 0.00 | 0.00 | 0.00 | 90 | 1014.7 |
| 20260504050317 | 42 | 27 | 0.0 | 1.7 | 0.00 | 0.00 | 0.00 | 81 | 1014.7 |
| 20260504045814 | 42 | 89 | 0.0 | 1.7 | 0.00 | 0.00 | 0.00 | 79 | 1014.8 |
| 20260504045314 | 43 | 44 | 0.9 | 1.7 | 0.00 | 0.00 | 0.00 | 78 | 1014.9 |
| 20260504044812 | 43 | 53 | 0.9 | 1.7 | 0.00 | 0.00 | 0.00 | 75 | 1014.6 |
| 20260504044309 | 43 | 15 | 0.0 | 1.7 | 0.00 | 0.00 | 0.00 | 74 | 1014.7 |
| 20260504043806 | 43 | 288 | 0.0 | 2.6 | 0.00 | 0.00 | 0.00 | 74 | 1014.7 |
| 20260504043303 | 44 | 328 | 0.0 | 2.6 | 0.00 | 0.00 | 0.00 | 73 | 1014.5 |
| 20260504042801 | 44 | 173 | 0.0 | 1.7 | 0.00 | 0.00 | 0.00 | 74 | 1014.5 |
| 20260504042257 | 44 | 58 | 0.0 | 0.9 | 0.00 | 0.00 | 0.00 | 73 | 1014.4 |
| 20260504041753 | 44 | 39 | 0.0 | 1.7 | 0.00 | 0.00 | 0.00 | 71 | 1014.5 |
| 20260504041249 | 45 | 89 | 0.9 | 2.6 | 0.00 | 0.00 | 0.00 | 71 | 1014.4 |
| 20260504040745 | 45 | 142 | 0.0 | 1.7 | 0.00 | 0.00 | 0.00 | 69 | 1014.5 |
| 20260504040243 | 46 | 103 | 0.0 | 2.6 | 0.00 | 0.00 | 0.00 | 66 | 1014.4 |
| 20260504035739 | 46 | 24 | 0.9 | 1.7 | 0.00 | 0.00 | 0.00 | 65 | 1014.3 |
| 20260504035236 | 47 | 185 | 0.9 | 6.1 | 0.00 | 0.00 | 0.00 | 65 | 1014.4 |
| 20260504034734 | 47 | 10 | 0.0 | 2.6 | 0.00 | 0.00 | 0.00 | 64 | 1014.3 |
| 20260504034231 | 47 | 211 | 0.9 | 2.6 | 0.00 | 0.00 | 0.00 | 65 | 1014.4 |
| 20260504033729 | 46 | 30 | 0.9 | 3.5 | 0.00 | 0.00 | 0.00 | 66 | 1014.4 |
| 20260504033226 | 46 | 143 | 1.7 | 2.6 | 0.00 | 0.00 | 0.00 | 67 | 1014.3 |
| 20260504032723 | 46 | 269 | 0.0 | 2.6 | 0.00 | 0.00 | 0.00 | 66 | 1014.3 |
| 20260504032220 | 46 | 335 | 0.0 | 2.6 | 0.00 | 0.00 | 0.00 | 66 | 1014.2 |
| 20260504031716 | 46 | 125 | 0.0 | 2.6 | 0.00 | 0.00 | 0.00 | 67 | 1014.5 |
| 20260504031214 | 45 | 239 | 0.0 | 3.5 | 0.00 | 0.00 | 0.00 | 68 | 1014.5 |
| 20260504030709 | 45 | 323 | 0.9 | 2.6 | 0.00 | 0.00 | 0.00 | 71 | 1014.3 |
| 20260504030207 | 44 | 196 | 1.7 | 2.6 | 0.00 | 0.00 | 0.00 | 73 | 1014.2 |
| 20260504025703 | 44 | 53 | 0.0 | 1.7 | 0.00 | 0.00 | 0.00 | 72 | 1014.4 |
| 20260504025200 | 44 | 304 | 0.0 | 2.6 | 0.00 | 0.00 | 0.00 | 74 | 1014.3 |
| 20260504024657 | 44 | 197 | 0.0 | 1.7 | 0.00 | 0.00 | 0.00 | 74 | 1014.2 |
| 20260504024153 | 44 | 204 | 0.9 | 2.6 | 0.00 | 0.00 | 0.00 | 73 | 1014.3 |
| 20260504023650 | 44 | 352 | 0.0 | 1.7 | 0.00 | 0.00 | 0.00 | 75 | 1014.2 |
| 20260504023146 | 44 | 152 | 0.0 | 1.7 | 0.00 | 0.00 | 0.00 | 75 | 1014.2 |
| 20260504022643 | 44 | 1 | 0.9 | 1.7 | 0.00 | 0.00 | 0.00 | 75 | 1014.2 |
| 20260504022138 | 44 | 44 | 0.9 | 1.7 | 0.00 | 0.00 | 0.00 | 73 | 1014.3 |
| 20260504021637 | 44 | 60 | 0.0 | 1.7 | 0.00 | 0.00 | 0.00 | 74 | 1014.3 |
| 20260504021133 | 45 | 336 | 0.0 | 1.7 | 0.00 | 0.00 | 0.00 | 71 | 1014.2 |
| 20260504020630 | 44 | 114 | 0.0 | 2.6 | 0.00 | 0.00 | 0.00 | 73 | 1014.2 |
| 20260504020126 | 45 | 28 | 1.7 | 1.7 | 0.00 | 0.00 | 0.00 | 73 | 1014.3 |
| 20260504015623 | 45 | 246 | 0.9 | 1.7 | 0.00 | 0.00 | 0.00 | 71 | 1014.2 |
| 20260504015119 | 44 | 144 | 0.0 | 1.7 | 0.00 | 0.00 | 0.00 | 73 | 1014.1 |
| 20260504014615 | 45 | 45 | 1.7 | 2.6 | 0.00 | 0.00 | 0.00 | 73 | 1014.2 |
| 20260504014113 | 45 | 166 | 0.0 | 2.6 | 0.00 | 0.00 | 0.00 | 73 | 1014.2 |
| 20260504013610 | 45 | 135 | 0.0 | 1.7 | 0.00 | 0.00 | 0.00 | 72 | 1014.1 |
| 20260504013107 | 45 | 62 | 0.0 | 1.7 | 0.00 | 0.00 | 0.00 | 72 | 1014.2 |
| 20260504012604 | 45 | 89 | 0.0 | 2.6 | 0.00 | 0.00 | 0.00 | 70 | 1014.1 |
| 20260504012102 | 46 | 165 | 0.0 | 0.9 | 0.00 | 0.00 | 0.00 | 70 | 1013.9 |
| 20260504011559 | 46 | 218 | 0.0 | 1.7 | 0.00 | 0.00 | 0.00 | 69 | 1013.9 |
| 20260504011055 | 47 | 334 | 1.7 | 2.6 | 0.00 | 0.00 | 0.00 | 66 | 1013.7 |
| 20260504010550 | 48 | 345 | 0.9 | 3.5 | 0.00 | 0.00 | 0.00 | 63 | 1013.8 |
| 20260504010047 | 48 | 18 | 1.7 | 2.6 | 0.00 | 0.00 | 0.00 | 65 | 1013.7 |
| 20260504005543 | 49 | 269 | 0.0 | 2.6 | 0.00 | 0.00 | 0.00 | 60 | 1013.6 |
| 20260504005041 | 50 | 315 | 1.7 | 2.6 | 0.00 | 0.00 | 0.00 | 57 | 1013.8 |
| 20260504004539 | 50 | 49 | 0.9 | 1.7 | 0.00 | 0.00 | 0.00 | 60 | 1013.7 |
| 20260504004036 | 51 | 64 | 0.9 | 1.7 | 0.00 | 0.00 | 0.00 | 55 | 1013.7 |
| 20260504003532 | 51 | 112 | 0.0 | 1.7 | 0.00 | 0.00 | 0.00 | 54 | 1013.8 |
| 20260504003029 | 51 | 70 | 0.0 | 2.6 | 0.00 | 0.00 | 0.00 | 54 | 1013.6 |
| 20260504002525 | 52 | 53 | 1.7 | 1.7 | 0.00 | 0.00 | 0.00 | 53 | 1013.4 |
| 20260504002023 | 53 | 5 | 2.6 | 2.6 | 0.00 | 0.00 | 0.00 | 50 | 1013.5 |
| 20260504001521 | 53 | 359 | 0.9 | 3.5 | 0.00 | 0.00 | 0.00 | 49 | 1013.1 |
| 20260504001016 | 53 | 77 | 0.0 | 2.6 | 0.00 | 0.00 | 0.00 | 51 | 1013.4 |
| 20260504000514 | 54 | 331 | 1.7 | 2.6 | 0.00 | 0.00 | 0.00 | 46 | 1013.3 |
| 20260504000011 | 55 | 96 | 1.7 | 3.5 | 0.00 | 0.00 | 0.00 | 47 | 1013.3 |
| 20260503235509 | 55 | 40 | 0.0 | 4.3 | 0.00 | 0.00 | 0.00 | 46 | 1013.3 |
| 20260503235006 | 56 | 66 | 1.7 | 3.5 | 0.00 | 0.00 | 0.00 | 44 | 1013.1 |
| 20260503234503 | 56 | 128 | 0.9 | 5.2 | 0.00 | 0.00 | 0.00 | 43 | 1013.2 |
| 20260503234002 | 57 | 182 | 2.6 | 6.1 | 0.00 | 0.00 | 0.00 | 43 | 1013.2 |
| 20260503233457 | 57 | 356 | 1.7 | 4.3 | 0.00 | 0.00 | 0.00 | 44 | 1013.1 |
| 20260503232954 | 57 | 51 | 1.7 | 5.2 | 0.00 | 0.00 | 0.00 | 43 | 1013.0 |
| 20260503232451 | 57 | 197 | 2.6 | 4.3 | 0.00 | 0.00 | 0.00 | 41 | 1012.8 |
| 20260503231949 | 57 | 351 | 2.6 | 7.0 | 0.00 | 0.00 | 0.00 | 42 | 1013.0 |
| 20260503231446 | 57 | 7 | 0.9 | 6.1 | 0.00 | 0.00 | 0.00 | 41 | 1012.9 |
| 20260503230942 | 58 | 53 | 2.6 | 6.1 | 0.00 | 0.00 | 0.00 | 41 | 1013.1 |
| 20260503230439 | 58 | 182 | 2.6 | 7.0 | 0.00 | 0.00 | 0.00 | 41 | 1013.0 |
| 20260503225937 | 58 | 98 | 4.3 | 11.3 | 0.00 | 0.00 | 0.00 | 41 | 1013.0 |
| 20260503225433 | 59 | 5 | 0.9 | 4.3 | 0.00 | 0.00 | 0.00 | 40 | 1012.7 |
| 20260503224929 | 60 | 297 | 2.6 | 9.6 | 0.00 | 0.00 | 0.00 | 39 | 1012.8 |
| 20260503224426 | 61 | 265 | 4.3 | 16.5 | 0.00 | 0.00 | 0.00 | 37 | 1012.9 |
| 20260503223924 | 60 | 138 | 0.9 | 4.3 | 0.00 | 0.00 | 0.00 | 40 | 1012.9 |
| 20260503223422 | 59 | 274 | 1.7 | 14.8 | 0.00 | 0.00 | 0.00 | 40 | 1012.8 |
| 20260503222917 | 59 | 81 | 0.9 | 9.6 | 0.00 | 0.00 | 0.00 | 39 | 1013.0 |
| 20260503222415 | 60 | 304 | 5.2 | 6.1 | 0.00 | 0.00 | 0.00 | 38 | 1012.7 |
| 20260503221914 | 59 | 306 | 7.8 | 8.7 | 0.00 | 0.00 | 0.00 | 38 | 1012.9 |
| 20260503221412 | 59 | 16 | 2.6 | 13.0 | 0.00 | 0.00 | 0.00 | 39 | 1012.8 |
| 20260503220908 | 61 | 298 | 5.2 | 11.3 | 0.00 | 0.00 | 0.00 | 36 | 1012.9 |
| 20260503220404 | 62 | 321 | 3.5 | 13.9 | 0.00 | 0.00 | 0.00 | 37 | 1012.9 |
| 20260503215901 | 62 | 259 | 8.7 | 13.0 | 0.00 | 0.00 | 0.00 | 35 | 1012.9 |
| 20260503215358 | 61 | 35 | 2.6 | 9.6 | 0.00 | 0.00 | 0.00 | 37 | 1012.8 |
| 20260503214856 | 61 | 295 | 4.3 | 10.4 | 0.00 | 0.00 | 0.00 | 37 | 1013.0 |
| 20260503214353 | 61 | 27 | 1.7 | 13.9 | 0.00 | 0.00 | 0.00 | 38 | 1012.8 |
| 20260503213850 | 61 | 242 | 10.4 | 16.5 | 0.00 | 0.00 | 0.00 | 36 | 1012.7 |
| 20260503213348 | 63 | 339 | 4.3 | 14.8 | 0.00 | 0.00 | 0.00 | 35 | 1012.7 |
| 20260503212845 | 63 | 11 | 2.6 | 7.8 | 0.00 | 0.00 | 0.00 | 36 | 1012.8 |
| 20260503212343 | 62 | 230 | 1.7 | 7.0 | 0.00 | 0.00 | 0.00 | 35 | 1012.4 |
| 20260503211839 | 61 | 294 | 3.5 | 8.7 | 0.00 | 0.00 | 0.00 | 35 | 1012.7 |
| 20260503211336 | 59 | 28 | 1.7 | 8.7 | 0.00 | 0.00 | 0.00 | 38 | 1012.4 |
| 20260503210831 | 59 | 72 | 4.3 | 7.8 | 0.00 | 0.00 | 0.00 | 38 | 1012.6 |
| 20260503210329 | 59 | 277 | 1.7 | 8.7 | 0.00 | 0.00 | 0.00 | 37 | 1012.6 |
| 20260503205824 | 59 | 33 | 0.9 | 8.7 | 0.00 | 0.00 | 0.00 | 40 | 1012.6 |
| 20260503205321 | 59 | 283 | 3.5 | 13.0 | 0.00 | 0.00 | 0.00 | 36 | 1012.7 |
| 20260503204817 | 58 | 347 | 3.5 | 9.6 | 0.00 | 0.00 | 0.00 | 37 | 1012.6 |
| 20260503204315 | 58 | 261 | 9.6 | 11.3 | 0.00 | 0.00 | 0.00 | 36 | 1012.6 |
| 20260503203812 | 58 | 56 | 6.1 | 11.3 | 0.00 | 0.00 | 0.00 | 37 | 1012.5 |
| 20260503203309 | 58 | 264 | 6.1 | 13.0 | 0.00 | 0.00 | 0.00 | 36 | 1012.7 |